Toronto Pearson, Ontario

12:54 PM EST on November 15, 2019 (GMT -0500)
Toronto-Pearson International

Weather History for CYYZ - June, 2019

Change the Weather History Date:

Friday, June 14, 2019

  Actual Average Record
Temperature  
Mean Temperature 62 °F -  
Max Temperature 73 °F 77 °F 86 °F (2001)
Min Temperature 51 °F 55 °F 47 °F (2016)
Degree Days  
Heating Degree Days 3    
Growing Degree Days 12 (Base 50)    
Moisture  
Dew Point 48 °F    
Average Humidity 59    
Maximum Humidity 88    
Minimum Humidity 32    
Precipitation  
Precipitation 0.01 in 0.10 in - ()
Sea Level Pressure  
Sea Level Pressure 29.84 in    
Wind  
Wind Speed 14 mph ()    
Max Wind Speed 23 mph    
Max Gust Speed 36 mph    
Visibility 15.0 miles    
Events Rain    
Averages and records for this station are not official NWS values.
T = Trace of Precipitation, MM = Missing Value Source: Averaged Metar Reports

Daily Weather History Graph

Daily Weather History Graph

Search for Another Location

Airport or City:

Astronomy

Jun. 14, 2019 Rise Set
Actual Time 5:36 AM EDT 9:01 PM EDT
Civil Twilight 5:00 AM EDT 9:37 PM EDT
Nautical Twilight 4:13 AM EDT 10:24 PM EDT
Astronomical Twilight 3:14 AM EDT 11:23 PM EDT
Moon 6:16 PM EDT (6/14) 4:00 AM EDT (6/14)
Length of Visible Light 16h 36m
Length of Day
15h 25m
Waxing Gibbous, 92% of the Moon is Illuminated
Jun 14
Waxing Gibbous
Jun 17
Full
Jun 25
Last Quarter
Jul 2
New
Jul 9
First Quarter

Hourly Weather History & Observations

Time (EDT) Temp. Dew Point Humidity Pressure Visibility Wind Dir Wind Speed Gust Speed Precip Events Conditions
12:00 AM 55.4 °F 51.8 °F 88% 29.64 in 15.0 mi West 11.5 mph - N/A   Mostly Cloudy
1:00 AM 55.4 °F 50.0 °F 82% 29.65 in 15.0 mi WNW 15.0 mph 21.9 mph N/A   Mostly Cloudy
2:00 AM 55 °F 49 °F 74% 29.66 in 15 mi West 17.3 mph - -   Overcast
2:00 AM 55.4 °F 48.2 °F 77% 29.66 in 15.0 mi West 16.1 mph 23.0 mph N/A   Mostly Cloudy
3:00 AM 53.6 °F 48.2 °F 82% 29.68 in 15.0 mi WNW 16.1 mph 25.3 mph N/A   Mostly Cloudy
4:00 AM 53.6 °F 46.4 °F 77% 29.70 in 15.0 mi WNW 17.3 mph 26.5 mph N/A   Mostly Cloudy
5:00 AM 53 °F 45 °F 66% 29.72 in 15 mi West 15.0 mph - -  
5:00 AM 53.6 °F 44.6 °F 72% 29.72 in 15.0 mi West 16.1 mph 24.2 mph N/A   Mostly Cloudy
6:00 AM 51.8 °F 44.6 °F 76% 29.75 in 15.0 mi West 17.3 mph 26.5 mph N/A   Mostly Cloudy
7:00 AM 53.6 °F 44.6 °F 72% 29.77 in 15.0 mi West 17.3 mph 29.9 mph N/A   Mostly Cloudy
8:00 AM 53 °F 44 °F 61% 29.81 in 15 mi West 18.4 mph - -   Mostly Cloudy
8:00 AM 53.6 °F 42.8 °F 67% 29.81 in 15.0 mi West 23.0 mph - N/A   Mostly Cloudy
9:00 AM 57.2 °F 46.4 °F 67% 29.84 in 15.0 mi West 12.7 mph 24.2 mph N/A   Mostly Cloudy
10:00 AM 57.2 °F 44.6 °F 63% 29.86 in 15.0 mi West 21.9 mph 28.8 mph N/A   Mostly Cloudy
11:00 AM 65 °F 47 °F 41% 29.88 in 15 mi West 19.6 mph - -  
11:00 AM 64.4 °F 46.4 °F 52% 29.88 in 15.0 mi West 21.9 mph 29.9 mph N/A   Scattered Clouds
12:00 PM 68.0 °F 50.0 °F 52% 29.89 in 15.0 mi WNW 17.3 mph 34.5 mph N/A   Mostly Cloudy
1:00 PM 69.8 °F 46.4 °F 43% 29.90 in 15.0 mi WNW 23.0 mph 35.7 mph N/A   Partly Cloudy
2:00 PM 71 °F 49 °F 34% 29.91 in 15 mi West 19.6 mph - -   Scattered Clouds
2:00 PM 71.6 °F 48.2 °F 43% 29.91 in 15.0 mi West 20.7 mph 27.6 mph N/A   Partly Cloudy
3:00 PM 71.6 °F 48.2 °F 43% 29.92 in 15.0 mi West 18.4 mph 34.5 mph N/A   Partly Cloudy
4:00 PM 73.4 °F 46.4 °F 38% 29.92 in 15.0 mi West 21.9 mph 28.8 mph N/A   Mostly Cloudy
5:00 PM 70 °F 47 °F 32% 29.94 in 15 mi WSW 12.7 mph - -  
5:00 PM 69.8 °F 46.4 °F 43% 29.94 in 15.0 mi WSW 13.8 mph 20.7 mph N/A   Mostly Cloudy
7:00 PM 68.0 °F 46.4 °F 46% 29.94 in 15.0 mi West 5.8 mph 17.3 mph N/A   Overcast
7:08 PM 68.0 °F 46.4 °F 46% 29.94 in 15.0 mi WSW 9.2 mph 20.7 mph N/A Rain Light Rain Showers
7:44 PM 62.6 °F 51.8 °F 68% 29.94 in 15.0 mi SSW 6.9 mph - N/A   Overcast
8:00 PM 64 °F 54 °F 61% 29.94 in 15 mi South 8.1 mph - - Rain Light Rain Showers
8:00 PM 64.4 °F 53.6 °F 68% 29.94 in 15.0 mi South 9.2 mph - N/A   Mostly Cloudy
9:00 PM 66.2 °F 50.0 °F 56% 29.93 in 15.0 mi South 15.0 mph 21.9 mph N/A   Mostly Cloudy
10:00 PM 66.2 °F 48.2 °F 52% 29.93 in 15.0 mi South 15.0 mph 23.0 mph N/A   Overcast